Location: En la Gottaz
(46.7000°N, 7.1000°E)
Time: 01:07:22
(UTC+00:00)

Daily predictions for brighter satellites

Satellite Brightness Start Highest point End
(mag) Time Altitude Azimuth Time Altitude Azimuth Time Altitude Azimuth
NOSS 2-2 (D) 4.3 00:01:31 10° NW 00:06:33 83° NE 00:11:37 19° SE
Cosmos 1461 3.3 00:02:49 10° NW 00:06:31 49° WSW 00:06:31 49° WSW
Cosmos 1867 3.6 00:05:02 41° SW 00:07:00 78° NW 00:12:31 10° NE
Cosmos 2221 Rocket 3.8 00:06:47 50° WSW 00:07:29 56° WNW 00:11:51 10° N
Cosmos 1674 Rocket 3.4 00:06:55 66° SSW 00:07:30 82° W 00:11:51 10° N
Cosmos 2298 Rocket 4.1 00:07:41 48° S 00:09:02 69° ESE 00:14:21 10° NNE
Cosmos 1674 3.3 00:10:51 43° W 00:10:58 43° WNW 00:14:34 10° N
USA 306 3.3 00:11:52 47° ESE 00:11:52 47° ESE 00:15:30 10° ENE
Cosmos 1238 Rocket 3.5 00:10:08 10° NNW 00:12:06 32° NW 00:12:06 32° NW
Thor Agena Rocket 4.3 00:08:47 10° NNE 00:13:48 42° E 00:15:34 32° SE
ATLAS CENTAUR R/B 3.2 00:10:58 10° WNW 00:13:59 22° W 00:13:59 22° W
USA 307 3.4 00:15:20 44° ESE 00:15:20 44° ESE 00:18:56 10° ENE
SL-16 R/B 3.9 00:16:08 17° SE 00:18:18 21° E 00:22:22 10° NE
ERBS 4.0 00:22:52 22° E 00:22:52 22° E 00:24:20 10° ENE
Cosmos 1980 3.8 00:20:38 43° S 00:22:24 67° ESE 00:28:01 10° NNE
Cosmos 1378 Rocket 3.8 00:22:19 50° WSW 00:23:06 59° WNW 00:27:30 10° N
ATLAS 5 CENTAUR R/B 2.8 00:11:29 10° NW 00:23:18 64° WSW 00:24:40 44° S
Cosmos 2333 Rocket 3.5 00:19:42 17° WSW 00:23:20 32° NW 00:28:26 10° NNE
CZ-4C R/B 3.2 00:16:42 10° NW 00:23:52 56° WSW 00:27:53 31° S
Cosmos 1455 Rocket 4.1 00:19:58 10° N 00:24:12 40° ENE 00:26:10 26° SE
USA 215 4.1 00:20:14 10° NE 00:26:29 49° NNW 00:32:44 10° W
Cosmos 332 Rocket 4.3 00:28:23 39° SSE 00:29:34 49° ESE 00:34:12 10° NNE
NOSS 0 Rocket 3.9 00:29:22 38° SSW 00:32:00 87° WNW 00:38:18 10° NNE
USA 32 4.0 00:35:15 43° S 00:37:03 89° ESE 00:42:21 10° N
Meteor 2-10 Rocket 3.7 00:32:58 10° N 00:38:42 80° ENE 00:41:17 33° SSE
Cosmos 1975 Rocket 3.5 00:39:39 39° SSE 00:40:58 54° E 00:45:20 10° NNE
Cosmos 1745 Rocket 4.3 00:36:19 10° NNW 00:42:18 50° W 00:44:35 34° SW
ADEOS Rocket 4.3 00:42:18 19° WSW 00:43:39 20° W 00:47:54 10° NW
Cosmos 839 Rocket 4.2 00:37:50 10° NW 00:44:11 68° WSW 00:49:12 22° SSE
USA 308 2.7 00:44:46 58° SSW 00:45:28 74° SE 00:49:38 10° ENE
Cosmos 2219 Rocket 3.7 00:42:56 15° W 00:46:40 28° NW 00:51:29 10° N
Cosmos 1025 Rocket 3.5 00:47:03 36° SSE 00:48:27 51° E 00:52:38 10° NNE
Cosmos 1455 4.0 00:47:07 10° NNE 00:50:16 26° ENE 00:52:38 14° ESE
Cosmos 1269 Rocket 4.4 00:45:47 10° NNW 00:51:02 63° ENE 00:55:07 17° SE
GP-B 3.1 00:52:26 10° N 00:56:52 69° W 00:58:07 45° SSW
Meteor 2-5 Rocket 4.0 00:55:38 30° S 00:58:32 66° E 01:04:09 10° NNE
CZ-2D R/B 2.5 00:54:30 10° NNE 00:59:48 55° E 01:02:28 28° SSE
Lacrosse 5 2.5 00:58:31 34° S 00:59:57 42° SE 01:04:45 10° ENE
Cosmos 1300 3.1 00:57:34 10° NNW 01:01:11 43° W 01:01:27 42° WSW
USA 267 4.0 01:02:15 28° SW 01:02:50 28° SW 01:08:22 10° WNW
SL-14 R/B 4.2 01:02:27 30° W 01:03:08 33° WNW 01:06:40 10° N
Cosmos 371 Rocket 4.1 01:06:03 27° WSW 01:08:05 42° WNW 01:12:43 10° N
USA 305 3.0 01:07:08 32° WSW 01:08:57 70° NNW 01:13:07 10° NE
Cosmos 1544 Rocket 3.9 01:06:13 10° N 01:10:38 63° E 01:13:10 24° SSE
USA 229 DEB 4.3 01:04:10 10° NW 01:11:05 43° WSW 01:15:06 25° S
USA 229 4.3 01:04:16 10° NW 01:11:11 43° WSW 01:15:15 25° S
BREEZE-M DEB (TANK) 4.4 00:55:29 10° WSW 01:12:13 86° NNW 01:16:32 10° ENE
Cosmos 2237 Rocket 2.6 01:11:28 28° SW 01:14:24 56° WNW 01:20:02 10° NNE
COSMOS 2428 4.4 01:12:17 12° W 01:16:28 25° NW 01:21:08 10° N
AQUA 4.4 01:14:27 10° NNE 01:19:07 52° E 01:21:49 24° SSE
Cosmos 304 Rocket 4.2 01:17:17 30° WSW 01:19:21 51° WNW 01:24:05 10° NNE
SL-16 R/B 2.6 01:14:42 16° SSE 01:19:53 85° ENE 01:26:10 10° NNW
Helios 1A 4.2 01:17:06 10° SE 01:21:02 40° ENE 01:25:00 10° N
SAR-Lupe-2 4.3 01:19:14 10° NNE 01:22:43 46° E 01:24:09 29° SSE
Lacrosse 5 rocket 2.1 01:21:54 31° SSE 01:22:47 35° SE 01:26:29 10° ENE
SME Rocket 3.6 01:24:34 35° SW 01:25:44 43° W 01:30:27 10° NNW
Cosmos 1953 4.3 01:23:47 10° NW 01:26:09 15° W 01:26:26 15° W
Cosmos 2074 Rocket 4.0 01:22:33 10° N 01:28:54 89° E 01:33:59 17° S
Resurs 1-4 Rocket 2.1 01:23:43 10° NNE 01:29:01 82° WNW 01:31:56 27° SSW
Cosmos 2297 3.8 01:27:51 10° NNW 01:33:39 84° ENE 01:39:24 10° SSE
Cosmos 1943 Rocket 2.1 01:27:58 10° NNW 01:33:41 79° WSW 01:39:20 10° SSE
CRYOSAT 2 4.3 01:38:47 20° S 01:42:15 89° E 01:47:10 10° N
Cosmos 2184 Rocket 4.0 01:37:30 10° NNW 01:43:46 75° W 01:48:45 16° S
Cosmos 2278 Rocket 3.6 01:40:23 10° NW 01:44:17 19° W 01:45:23 18° WSW
ADEOS II 2.2 01:39:41 10° NNE 01:44:57 75° ESE 01:48:40 20° S
IDEFIX/ARIANE 42P 2.9 01:40:36 10° NNE 01:45:52 64° ESE 01:49:52 17° S
USA 306 3.8 01:47:34 13° W 01:51:06 45° NNW 01:55:08 10° NE
Cosmos 2084 Rocket 3.6 01:49:15 24° WSW 01:51:15 52° NW 01:54:59 10° NNE
Cosmos 292 Rocket 4.1 01:48:10 20° S 01:51:24 59° ESE 01:56:08 10° NNE
USA 307 3.7 01:51:04 13° W 01:54:34 47° NNW 01:58:38 10° NE
ERBS 3.7 01:54:54 15° W 01:56:52 29° NNW 01:59:38 10° NE
NPP 3.9 01:51:40 10° N 01:56:59 60° WNW 02:00:35 21° SW
Cosmos 2369 Rocket 2.5 01:53:21 10° NNW 01:58:57 68° ENE 02:04:31 10° SE
SL-16 R/B 2.3 01:58:00 21° SW 02:01:51 67° WNW 02:07:32 10° NNE
Cosmos 614 Rocket 3.9 01:57:23 10° NNW 02:02:35 74° WSW 02:07:46 10° SSE
Cosmos 2228 3.3 01:58:14 10° N 02:02:37 71° E 02:06:56 10° SSE
IRS-1D 4.2 01:57:35 10° NNE 02:02:51 55° E 02:07:54 11° S
EO 1 Del DPAF 2.9 01:59:36 10° NNE 02:03:08 90° WNW 02:05:17 22° SSW
Cosmos 2251 Rocket 3.7 01:59:19 10° NNW 02:04:36 74° ENE 02:09:52 10° SSE
Meteor 1-28 Rocket 3.2 02:03:36 19° S 02:06:07 58° W 02:09:49 10° NNW
Cosmos 1656 Rocket 4.1 02:02:56 10° NNW 02:08:20 64° ENE 02:13:42 10° SE
COSMOS 2455 2.9 02:04:48 18° SSW 02:09:23 80° ESE 02:15:26 10° NE
Cosmos 1536 Rocket 3.7 02:08:03 20° SSW 02:11:00 61° WNW 02:15:21 10° N
COSMOS 2441 4.5 02:13:17 10° NNE 02:18:11 76° ESE 02:22:48 11° S
Nadezhda 1 Rocket 4.1 02:15:05 15° SSW 02:20:27 64° WNW 02:26:43 10° N
MSX 3.8 02:17:08 10° NNE 02:22:56 84° WNW 02:28:25 12° SSW
USA 308 4.2 02:21:27 10° W 02:25:21 37° NNW 02:29:16 10° NE
Cosmos 1603 4.4 02:20:03 10° S 02:25:25 49° ESE 02:30:52 10° NE
Cosmos 1455 3.5 02:22:41 10° NW 02:25:39 23° W 02:27:23 16° SW
MOS 1 Rocket 4.0 02:23:22 17° SW 02:25:57 29° W 02:29:45 10° NNW
Cosmos 1271 Rocket 3.3 02:26:02 10° NNW 02:29:37 38° W 02:32:45 13° SSW
Cosmos 1606 Rocket 3.5 02:29:22 10° N 02:33:49 82° W 02:38:11 10° S
ALOS 3.6 02:32:52 10° NNE 02:37:12 37° E 02:41:31 10° SSE
CZ-2C R/B 3.7 02:34:33 10° NNE 02:39:23 40° E 02:44:04 10° SSE
CZ-2D R/B 3.6 02:35:13 10° N 02:39:28 24° WNW 02:43:39 10° WSW
Lacrosse 5 2.6 02:37:56 10° WSW 02:42:54 50° NNW 02:47:52 10° NE
Helios 1B rocket 2.7 02:40:02 10° NNE 02:44:06 68° ESE 02:48:08 10° S
Cosmos 2366 rocket 4.1 02:39:52 10° N 02:46:04 81° E 02:52:15 10° S
Cosmos 2341 Rocket 4.1 02:40:12 10° NNW 02:46:35 73° W 02:52:56 10° S
Meteor 2-1 Rocket 4.3 02:45:26 10° NNW 02:51:09 65° W 02:56:43 10° S
BREEZE-M DEB (TANK) 3.1 02:47:13 11° SW 02:51:30 42° SSE 02:53:46 10° E
Cosmos 407 Rocket 3.5 02:47:12 10° NNW 02:52:33 78° WSW 02:57:47 10° SSE
SL-8 Rocket 4.0 02:46:59 10° N 02:53:20 77° W 02:59:38 10° S
SL-19 R/B 4.5 02:48:19 10° NNE 02:54:29 82° WNW 03:00:19 10° SSW
Cosmos 1328 3.9 02:52:44 10° SSW 02:56:39 63° WNW 03:00:37 10° N
Helios 1A 4.4 02:53:30 10° SW 02:56:41 21° W 02:59:54 10° NW
Cosmos 1943 3.3 02:51:07 10° SSW 02:56:49 87° WNW 03:02:33 10° NNE
Cosmos 2237 Rocket 4.4 02:56:58 10° WNW 02:59:48 14° NW 03:02:39 10° N
Genesis I 3.2 02:56:05 10° NW 03:00:10 79° SW 03:04:09 10° SSE
Lacrosse 5 rocket 2.2 02:58:01 10° WSW 03:01:47 42° NNW 03:05:46 10° NE
Meteor 1-29 4.3 03:00:05 10° NNE 03:03:08 36° E 03:06:10 10° SSE
Cosmos 1140 Rocket 3.6 02:58:16 10° NNW 03:03:28 60° WSW 03:08:35 10° S
SL-16 R/B 4.0 03:00:19 10° SW 03:04:15 17° W 03:08:13 10° NW
Resurs 1-4 Rocket 4.1 03:05:20 10° NNW 03:08:01 14° NW 03:10:42 10° W
SeaSat 1 3.7 03:04:28 10° NE 03:09:03 37° ESE 03:13:37 10° S
Lacrosse 4 Rocket 3.3 03:05:32 10° SSE 03:09:07 26° ESE 03:12:39 10° NE
Cosmos 1892 Rocket 3.7 03:06:01 10° SSW 03:10:26 61° WNW 03:14:54 10° N
IRS-1C 4.4 03:05:39 10° NNE 03:11:00 74° ESE 03:16:20 10° S
